sat.trackr.live / text

‹ back to catalog

STARLINK-34559

NORAD 64706 · 2025-142L

PAYLOAD ACTIVE UNKNOWN

§ Identity

Operator
Country
US
Launch date
2025-06-28
Launch site
AFWTR
Launch vehicle
Mass (kg)
RCS (m²)

Purposes: comms

External: N2YO · Heavens-Above · Gunter

§ Orbital elements

Epoch: 2026-05-25T03:18:13.773024Z

Period
96.11 min
Inclination
69.9999°
Eccentricity
0.0004095
Mean motion
14.98338252 rev/d
Perigee alt
569.2 km
Apogee alt
574.9 km
Semi-major
6,950.2 km
B*
1.1660e-4
RAAN
121.6357°
Arg perigee
264.6695°
Mean anomaly
95.3997°
Rev number
5,094

§ Raw data

STARLINK-345591 64706U 25142L   26145.13765941  .00001299  00000+0  11660-3 0  99982 64706  69.9999 121.6357 0004095 264.6695  95.3997 14.98338252 50942

JSON: /api/v1/satellites/64706 · /tle

For live sub-satellite position, see the globe view (requires WebGL).

§ Visibility from observer

Set your observer location to see the next 7 days of passes ≥ 10°. The values pass through the URL so the page stays shareable.

No JS? Fill the form by hand. The geolocation button needs JavaScript.